STARLINK-35943, 66927

Orbit data source: Space-Track

STARLINK-35943, 66927 is a payload satellite owned by SpaceX/Seattle (US) in LEO that was launched on Sun, 07 Dec 2025 UTC via an FALCON 9 launch vehicle from the Air Force Western Test Range (AFWTR). Payload-class satellites include a variety of spacecraft equipped with specific instruments for various scientific and technological missions. These include communications satellites like Starlink; space stations such as the ISS; scientific satellites like the Hubble; Earth observation satellites from companies like Planet Labs, Umbra, and HawkEye 360; GPS; miniature CubeSats for education and research; and military/defense satellites.

Loading next visibility...
Identifier
66927, 2025-286C
Orbit
LEO
Country
Flag of USUS
Related business
Manufacturer
SpaceX/Seattle
Mission
Operational Commercial Communications
Bus & Motor
STARLINK V2MO, Unknown motor
Mass
575 kg wet, ~530 kg dry
Launch date (UTC)
2025-12-07 (6 months ago)
Launch vehicle
FALCON 9
Launch site
Air Force Western Test Range (AFWTR)
Object type
Payload
Rocket body
Debris
Shape & HBR
Box + 2 Pan, 17.7 m
Radar Cross Section
36.964 m², Large (>1 m²)

Expand to show TLE details & history
Last TLE update: 9 hours ago

TLE from 9 hours ago
0 STARLINK-35943
1 66927U 25286C   26171.47591117  .00014791  00000-0  44789-3 0  9992
2 66927  53.1584 239.6171 0001290  98.3790 261.7359 15.34410629 31175
Epoch: 2026-06-20T11:25Z
TLE epoch observation values (Epoch: 2026-06-20T11:25:18.725Z)
Latitude
0.00001°
Longitude
159.59909°
Altitude
463.7 km
Speed
7.636 km/s
True Right ascension
15h 58m 28s
True Declination
0° 00' 00"
Sunlit
Object was in full shadow at epoch
Visualization orbit readout
Latitude
Unknown
Longitude
Unknown
Altitude
Unknown
Speed
Unknown
Apparent Right ascension
Unknown
Apparent Declination
Unknown
Sunlit
N/A
Visualization observer readout
Local Sidereal Time
07:13:30
Azimuth
Unknown
Elevation
Unknown
Doppler factor
Unknown
Orbital elements
Apogee altitude
463.811 km
Perigee altitude
462.046 km
Semi-major axis
6,841.066 km
Eccentricity
0.00013
Inclination
53.1584°
RAAN
239.6171°
Arg. of periapsis
98.379°
True anomaly
261.72127°
Mean anomaly
261.7359°
Eccentric anomaly
261.72859°
Mean motion
3.83581 °/min
Orbital period
93.85 mins
BSTAR
0.00044789
Loading maneuver chart data...
Computing Atmospheric mass density...
Loading historical data...
Loading historical data...
Loading historical data...
Loading historical data...
Loading historical data...
Loading historical data...
Loading historical data...

Documentation

Showing up to 5 results
|